Location: Austin
(30.3000°N, 97.7500°W)
Time: 05:47:43
(UTC-06:00)

Meteor 2-15 - Pass Details

Date: 05 February 2026
Orbit: 935 x 955 km, 82.5° (Epoch: 14 February)

Event Time Altitude Azimuth Distance (km) Brightness Sun altitude
Rises 05:12:32 0° 188° (S) 3,616 7.4 -27.6°
Reaches altitude 10° 05:15:02 10° 190° (S) 2,673 6.7 -27.1°
Maximum altitude 05:21:09 77° 276° (W) 978 4.3 -25.8°
Drops below altitude 10° 05:27:17 10° 3° (N) 2,679 6.8 -24.5°
Sets 05:29:47 0° 5° (N) 3,625 7.5 -23.9°
